This is the latest recevied weather packets stored in our database for station/object KC9VAF. If no packets are shown the sender has not sent any weather packets the latest 10 day(s).
| Time | Temp. | Humidity | Pressure | Rain* | Wind** | Luminosity | Snow |
|---|---|---|---|---|---|---|---|
| 1778283053 | 15.56° C | 43% | 1006.2 hPa | 0 mm | - | 75 W/m² | - |
| 1778282749 | 15.56° C | 39% | 1006.3 hPa | 0 mm | - | 128 W/m² | - |
| 1778282446 | 15.56° C | 39% | 1006.3 hPa | 0 mm | - | 146 W/m² | - |
| 1778282144 | 15.56° C | 40% | 1006.4 hPa | 0 mm | - | 67 W/m² | - |
| 1778281841 | 15° C | 39% | 1006.6 hPa | 0 mm | - | 128 W/m² | - |
| 1778281537 | 15.56° C | 39% | 1006.5 hPa | 0 mm | - | 55 W/m² | - |
| 1778281234 | 15.56° C | 39% | 1006.6 hPa | 0 mm | - | 55 W/m² | - |
| 1778280932 | 16.11° C | 38% | 1006.8 hPa | 0 mm | - | 60 W/m² | - |
| 1778280628 | 16.67° C | 39% | 1006.5 hPa | 0 mm | - | 212 W/m² | - |
| 1778280326 | 16.11° C | 38% | 1006.5 hPa | 0 mm | - | 230 W/m² | - |
| 1778280023 | 16.67° C | 38% | 1006.7 hPa | 0 mm | - | 271 W/m² | - |
| 1778279721 | 16.11° C | 39% | 1006.6 hPa | 0 mm | - | 288 W/m² | - |
| 1778279418 | 15.56° C | 39% | 1006.6 hPa | 0 mm | - | 77 W/m² | - |
| 1778279116 | 16.67° C | 38% | 1007 hPa | 0 mm | - | 72 W/m² | - |
| 1778278812 | 17.22° C | 37% | 1006.8 hPa | 0 mm | - | 260 W/m² | - |
| 1778278508 | 17.22° C | 37% | 1007 hPa | 0 mm | - | 311 W/m² | - |
| 1778278204 | 16.67° C | 37% | 1007 hPa | 0 mm | - | 162 W/m² | - |
| 1778277901 | 18.33° C | 35% | 1006.8 hPa | 0 mm | - | 88 W/m² | - |
| 1778277596 | 18.89° C | 34% | 1006.6 hPa | 0 mm | - | 394 W/m² | - |
| 1778277294 | 18.33° C | 35% | 1006.6 hPa | 0 mm | - | 407 W/m² | - |
| 1778276990 | 18.33° C | 34% | 1006.4 hPa | 0 mm | - | 417 W/m² | - |
| 1778276688 | 17.78° C | 34% | 1006.6 hPa | 0 mm | - | 424 W/m² | - |
| 1778276384 | 17.78° C | 32% | 1006.6 hPa | 0 mm | - | 442 W/m² | - |
| 1778276082 | 18.33° C | 33% | 1006.4 hPa | 0 mm | - | 448 W/m² | - |
| 1778275777 | 18.89° C | 33% | 1006.5 hPa | 0 mm | - | 462 W/m² | - |
* Rain latest hour (hover to see other rain measurements)
** Current wind speed in m/s (hover to see current wind gust speed)